Regional Weather Roundup
Issued by NWS

Home | Current Version | Previous Version | Text Only | Print | Product List | Glossary On
Versions: 1 2 3 4 5 6 7 8 9 10 11 12 13 14 15 16 17 18 19 20 21 22 23 24 25 26 27 28 29 30 31 32 33 34 35 36 37 38 39 40 41 42 43 44 45 46 47 48 49 50
000
ASUS43 KBIS 251810
RWRND

NORTH DAKOTA REGIONAL WEATHER ROUNDUP
NATIONAL WEATHER SERVICE BISMARCK ND
100 PM CDT SAT OCT 25 2014

NOTE: "FAIR" INDICATES FEW OR NO CLOUDS BELOW 12,000 FEET WITH NO
SIGNIFICANT WEATHER AND/OR OBSTRUCTIONS TO VISIBILITY.


NDZ001>003-009>011-017-251900-
NORTHWEST NORTH DAKOTA

CITY           SKY/WX    TMP DP  RH WIND       PRES   REMARKS
WILLISTON      SUNNY     58  30  34 SE9       30.09F
6HR MIN TEMP:  31; 6HR MAX TEMP:  58;

MINOT          SUNNY     57  22  25 VRB3      30.10F
MINOT AFB      SUNNY     57  24  27 VRB3      30.10F
$$

NDZ018>021-031>035-040>046-251900-
SOUTHWEST NORTH DAKOTA

CITY           SKY/WX    TMP DP  RH WIND       PRES   REMARKS
BISMARCK       SUNNY     60  33  36 E6        30.15F
6HR MIN TEMP:  36; 6HR MAX TEMP:  60;

DICKINSON      SUNNY     59  30  33 SE9       30.09F
GARRISON         N/A     56  31  38 S7        30.12F
6HR MIN TEMP:  36; 6HR MAX TEMP:  56;

HETTINGER ARPT SUNNY     61  27  27 S10       30.12F
$$

NDZ004>008-012>016-024-026-027-054-251900-
NORTHEAST NORTH DAKOTA

CITY           SKY/WX    TMP DP  RH WIND       PRES   REMARKS
GRAND FORKS    MOSUNNY   57  26  30 NW18G24   30.07F
GRND FRKS AFB  SUNNY     58  27  30 NW15      30.08F
DEVILS LAKE    SUNNY     55  28  35 W14G21    30.09S
$$

NDZ022-023-025-028>030-036>039-047>053-251900-
SOUTHEAST NORTH DAKOTA

CITY           SKY/WX    TMP DP  RH WIND       PRES   REMARKS
FARGO          SUNNY     58  29  33 NW18      30.10F
6HR MIN TEMP:  40; 6HR MAX TEMP:  58;

JAMESTOWN      SUNNY     58  29  33 N9        30.13S
$$




USA.gov is the U.S. government's official web portal to all federal, state and local government web resources and services.